When you browse on this site, cookies collect data to enhance your experience and personalize the content and advertising you see.
Visit our Privacy Policy to learn more. By continuing to use the site, you agree to this use of cookies and data.
  • In Austria
  • List of Countries
  • For 7 days
  • Water Temperature
  • Weather Map
  • News
  • Weather Widgets
  • user-avatar
    Login

    Hourly Weather Bamenda

    Today, 19 January, Sunday

    Time Temperature Precipitation Wind Pressure Humidity
    00:00 +18°C° 0 mm 1 mps 641 mmHg 51%
    01:00 +18°C° 0 mm 1 mps 641 mmHg 49%
    02:00 +18°C° 0 mm 1 mps 641 mmHg 47%
    03:00 +16°C° 0 mm 1 mps 640 mmHg 46%
    04:00 +16°C° 0 mm 1 mps 640 mmHg 44%
    05:00 +16°C° 0 mm 1 mps 640 mmHg 43%
    06:00 +16°C° 0 mm 1 mps 640 mmHg 43%
    07:00 +16°C° 0 mm 1 mps 640 mmHg 42%
    08:00 +21°C° 0 mm 1 mps 642 mmHg 37%
    09:00 +25°C° 0 mm 1 mps 643 mmHg 32%
    10:00 +29°C° 0 mm 1 mps 645 mmHg 26%
    11:00 +30°C° 0 mm 1 mps 644 mmHg 25%
    12:00 +31°C° 0 mm 1 mps 644 mmHg 23%
    13:00 +34°C° 0 mm 2 mps 644 mmHg 22%
    14:00 +32°C° 0 mm 2 mps 643 mmHg 23%
    15:00 +32°C° 0 mm 2 mps 642 mmHg 24%
    16:00 +31°C° 0 mm 2 mps 641 mmHg 25%
    17:00 +28°C° 0 mm 1 mps 641 mmHg 30%
    18:00 +26°C° 0 mm 1 mps 641 mmHg 35%
    19:00 +23°C° 0 mm 1 mps 640 mmHg 41%
    20:00 +23°C° 0 mm 1 mps 641 mmHg 43%
    21:00 +22°C° 0 mm 1 mps 641 mmHg 45%
    22:00 +21°C° 0 mm 1 mps 641 mmHg 48%
    23:00 +20°C° 0 mm 1 mps 641 mmHg 48%

    Tomorrow, 20 January, Monday

    Time Temperature Precipitation Wind Pressure Humidity
    00:00 +20°C° 0 mm 1 mps 640 mmHg 48%
    01:00 +19°C° 0 mm 1 mps 640 mmHg 49%
    02:00 +17°C° 0 mm 0 mps 640 mmHg 49%
    03:00 +16°C° 0 mm 0 mps 640 mmHg 49%
    04:00 +16°C° 0 mm 0 mps 639 mmHg 49%
    05:00 +16°C° 0 mm 0 mps 640 mmHg 49%
    06:00 +18°C° 0 mm 1 mps 640 mmHg 48%
    07:00 +18°C° 0 mm 1 mps 641 mmHg 47%
    08:00 +22°C° 0 mm 1 mps 642 mmHg 40%
    09:00 +25°C° 0 mm 1 mps 643 mmHg 32%
    10:00 +29°C° 0 mm 1 mps 645 mmHg 25%
    11:00 +30°C° 0 mm 2 mps 644 mmHg 23%
    12:00 +31°C° 0 mm 2 mps 644 mmHg 21%
    13:00 +32°C° 0 mm 2 mps 643 mmHg 20%
    14:00 +32°C° 0 mm 2 mps 643 mmHg 20%
    15:00 +32°C° 0 mm 2 mps 642 mmHg 20%
    16:00 +32°C° 0 mm 2 mps 641 mmHg 20%
    17:00 +29°C° 0 mm 2 mps 641 mmHg 27%
    18:00 +26°C° 0 mm 1 mps 640 mmHg 33%
    19:00 +23°C° 0 mm 1 mps 640 mmHg 40%
    20:00 +23°C° 0 mm 1 mps 640 mmHg 43%
    21:00 +22°C° 0 mm 1 mps 640 mmHg 46%
    22:00 +21°C° 0 mm 1 mps 641 mmHg 49%
    23:00 +20°C° 0 mm 1 mps 641 mmHg 49%

    Day after tomorrow, 21 January, Tuesday

    Time Temperature Precipitation Wind Pressure Humidity
    00:00 +20°C° 0 mm 1 mps 640 mmHg 50%
    01:00 +20°C° 0 mm 1 mps 640 mmHg 51%
    02:00 +19°C° 0 mm 1 mps 640 mmHg 50%
    03:00 +19°C° 0 mm 1 mps 640 mmHg 49%
    04:00 +19°C° 0 mm 1 mps 639 mmHg 48%
    05:00 +19°C° 0 mm 1 mps 640 mmHg 47%
    06:00 +19°C° 0 mm 1 mps 641 mmHg 45%
    07:00 +19°C° 0 mm 1 mps 641 mmHg 44%
    08:00 +22°C° 0 mm 1 mps 642 mmHg 37%
    09:00 +26°C° 0 mm 1 mps 644 mmHg 30%
    10:00 +29°C° 0 mm 1 mps 645 mmHg 24%
    11:00 +30°C° 0 mm 2 mps 645 mmHg 22%
    12:00 +31°C° 0 mm 2 mps 645 mmHg 21%
    13:00 +34°C° 0 mm 2 mps 644 mmHg 19%
    14:00 +32°C° 0 mm 2 mps 643 mmHg 20%
    15:00 +32°C° 0 mm 2 mps 642 mmHg 20%
    16:00 +32°C° 0 mm 2 mps 641 mmHg 21%
    17:00 +29°C° 0 mm 2 mps 641 mmHg 26%
    18:00 +26°C° 0 mm 1 mps 640 mmHg 32%
    19:00 +23°C° 0 mm 1 mps 640 mmHg 38%
    20:00 +22°C° 0 mm 1 mps 640 mmHg 41%
    21:00 +21°C° 0 mm 1 mps 640 mmHg 43%
    22:00 +20°C° 0 mm 1 mps 641 mmHg 46%
    23:00 +20°C° 0 mm 1 mps 640 mmHg 44%

    22 January, Wednesday

    Time Temperature Precipitation Wind Pressure Humidity
    00:00 +20°C° 0 mm 1 mps 640 mmHg 42%
    01:00 +19°C° 0 mm 1 mps 640 mmHg 40%
    02:00 +19°C° 0 mm 1 mps 640 mmHg 39%
    03:00 +17°C° 0 mm 0 mps 640 mmHg 38%
    04:00 +17°C° 0 mm 0 mps 640 mmHg 37%
    05:00 +16°C° 0 mm 0 mps 640 mmHg 39%
    06:00 +16°C° 0 mm 0 mps 640 mmHg 40%
    07:00 +18°C° 0 mm 1 mps 641 mmHg 42%
    08:00 +21°C° 0 mm 1 mps 642 mmHg 36%
    09:00 +25°C° 0 mm 1 mps 644 mmHg 30%
    10:00 +28°C° 0 mm 1 mps 645 mmHg 24%
    11:00 +30°C° 0 mm 1 mps 645 mmHg 22%
    12:00 +31°C° 0 mm 2 mps 645 mmHg 20%
    13:00 +34°C° 0 mm 2 mps 644 mmHg 17%
    14:00 +34°C° 0 mm 2 mps 643 mmHg 18%
    15:00 +32°C° 0 mm 2 mps 643 mmHg 18%
    16:00 +32°C° 0 mm 2 mps 642 mmHg 19%
    17:00 +29°C° 0 mm 2 mps 641 mmHg 25%
    18:00 +26°C° 0 mm 1 mps 640 mmHg 31%
    19:00 +23°C° 0 mm 1 mps 640 mmHg 37%
    20:00 +22°C° 0 mm 1 mps 640 mmHg 38%
    21:00 +21°C° 0 mm 1 mps 640 mmHg 39%
    22:00 +20°C° 0 mm 1 mps 640 mmHg 40%
    23:00 +20°C° 0 mm 1 mps 640 mmHg 38%

    23 January, Thursday

    Time Temperature Precipitation Wind Pressure Humidity
    00:00 +19°C° 0 mm 1 mps 640 mmHg 36%
    01:00 +19°C° 0 mm 1 mps 640 mmHg 34%
    02:00 +19°C° 0 mm 1 mps 640 mmHg 34%
    03:00 +18°C° 0 mm 1 mps 640 mmHg 33%
    04:00 +18°C° 0 mm 1 mps 639 mmHg 32%
    05:00 +18°C° 0 mm 1 mps 640 mmHg 32%
    06:00 +16°C° 0 mm 1 mps 640 mmHg 31%
    07:00 +15°C° 0 mm 0 mps 640 mmHg 31%
    08:00 +21°C° 0 mm 1 mps 642 mmHg 27%
    09:00 +25°C° 0 mm 1 mps 643 mmHg 23%
    10:00 +29°C° 0 mm 1 mps 645 mmHg 19%
    11:00 +30°C° 0 mm 1 mps 645 mmHg 18%
    12:00 +31°C° 0 mm 1 mps 644 mmHg 17%
    13:00 +34°C° 0 mm 2 mps 644 mmHg 16%
    14:00 +32°C° 0 mm 2 mps 643 mmHg 16%
    15:00 +32°C° 0 mm 2 mps 642 mmHg 17%
    16:00 +31°C° 0 mm 2 mps 642 mmHg 17%
    17:00 +28°C° 0 mm 2 mps 641 mmHg 22%
    18:00 +25°C° 0 mm 1 mps 640 mmHg 27%
    19:00 +22°C° 0 mm 1 mps 639 mmHg 33%
    20:00 +21°C° 0 mm 1 mps 640 mmHg 32%
    21:00 +20°C° 0 mm 1 mps 640 mmHg 32%
    22:00 +19°C° 0 mm 1 mps 640 mmHg 32%
    23:00 +19°C° 0 mm 1 mps 640 mmHg 30%

    24 January, Friday

    Time Temperature Precipitation Wind Pressure Humidity
    00:00 +19°C° 0 mm 1 mps 640 mmHg 28%
    01:00 +18°C° 0 mm 1 mps 640 mmHg 27%
    02:00 +18°C° 0 mm 1 mps 640 mmHg 26%
    03:00 +18°C° 0 mm 1 mps 639 mmHg 26%
    04:00 +16°C° 0 mm 1 mps 639 mmHg 25%
    05:00 +16°C° 0 mm 1 mps 639 mmHg 25%
    06:00 +16°C° 0 mm 1 mps 640 mmHg 26%
    07:00 +16°C° 0 mm 1 mps 640 mmHg 26%
    08:00 +21°C° 0 mm 1 mps 642 mmHg 23%
    09:00 +25°C° 0 mm 1 mps 643 mmHg 20%
    10:00 +27°C° 0 mm 0 mps 645 mmHg 18%
    11:00 +31°C° 0 mm 1 mps 645 mmHg 16%
    12:00 +32°C° 0 mm 1 mps 644 mmHg 15%
    13:00 +34°C° 0 mm 2 mps 644 mmHg 13%
    14:00 +34°C° 0 mm 2 mps 643 mmHg 14%
    15:00 +32°C° 0 mm 2 mps 642 mmHg 14%
    16:00 +32°C° 0 mm 2 mps 641 mmHg 14%
    17:00 +29°C° 0 mm 2 mps 641 mmHg 19%
    18:00 +25°C° 0 mm 1 mps 640 mmHg 23%
    19:00 +22°C° 0 mm 1 mps 639 mmHg 28%
    20:00 +21°C° 0 mm 1 mps 640 mmHg 27%
    21:00 +20°C° 0 mm 1 mps 640 mmHg 27%
    22:00 +20°C° 0 mm 1 mps 640 mmHg 27%
    23:00 +19°C° 0 mm 1 mps 640 mmHg 26%
    Show more